This is the latest recevied weather packets stored in our database for station/object SR4DIG-13. If no packets are shown the sender has not sent any weather packets the latest 10 day(s).
| Time | Temp. | Humidity | Pressure | Rain* | Wind** | Luminosity | Snow |
|---|---|---|---|---|---|---|---|
| 1778132841 | 18.33° C | 63% | 1005.9 hPa | 0 mm | - | - | - |
| 1778132541 | 18.89° C | 62% | 1005.9 hPa | 0 mm | - | - | - |
| 1778132188 | 18.89° C | 63% | 1006 hPa | 0 mm | - | - | - |
| 1778131887 | 18.89° C | 63% | 1005.9 hPa | 0 mm | - | - | - |
| 1778131586 | 18.33° C | 66% | 1005.9 hPa | 0 mm | - | - | - |
| 1778131285 | 17.22° C | 68% | 1005.9 hPa | 0 mm | - | - | - |
| 1778130670 | 17.22° C | 69% | 1005.7 hPa | 0 mm | - | - | - |
| 1778130369 | 16.67° C | 70% | 1005.7 hPa | 0 mm | - | - | - |
| 1778130068 | 16.11° C | 71% | 1005.7 hPa | 0 mm | - | - | - |
| 1778129767 | 15.56° C | 71% | 1005.6 hPa | 0 mm | - | - | - |
| 1778129466 | 15.56° C | 71% | 1005.7 hPa | 0 mm | - | - | - |
| 1778129165 | 15.56° C | 72% | 1005.7 hPa | 0 mm | - | - | - |
| 1778128865 | 15° C | 72% | 1005.4 hPa | 0 mm | - | - | - |
| 1778128564 | 15° C | 73% | 1005.6 hPa | 0 mm | - | - | - |
| 1778128263 | 15° C | 73% | 1005.6 hPa | 0 mm | - | - | - |
| 1778127962 | 14.44° C | 73% | 1005.6 hPa | 0 mm | - | - | - |
| 1778127661 | 14.44° C | 73% | 1005.5 hPa | 0 mm | - | - | - |
| 1778127360 | 14.44° C | 73% | 1005.6 hPa | 0 mm | - | - | - |
| 1778127059 | 14.44° C | 73% | 1005.5 hPa | 0 mm | - | - | - |
| 1778126758 | 14.44° C | 74% | 1005.5 hPa | 0 mm | - | - | - |
| 1778126458 | 14.44° C | 74% | 1005.4 hPa | 0 mm | - | - | - |
| 1778125838 | 14.44° C | 74% | 1005.2 hPa | 0 mm | - | - | - |
| 1778125538 | 13.89° C | 74% | 1005.2 hPa | 0 mm | - | - | - |
| 1778125237 | 13.89° C | 74% | 1005.4 hPa | 0 mm | - | - | - |
| 1778124936 | 13.89° C | 74% | 1005.5 hPa | 0 mm | - | - | - |
* Rain since midnight (hover to see other rain measurements)
** Current wind speed in m/s (hover to see current wind gust speed)